Dewpoint
21 21 26 26 27 23 26 19 24 22 29 32 32 36 37 33 28 25 41 44 47 47 48 49 50 50 50 50 50 49 50 52 54 54 54 53 54 56 57 57 57 58 59 59 60 59 61 62 62 61 62 63 62 61 62 62 62 63 64 66 67 67 67
24 25 25 27 25 25 21 23 24 28 29 33 27 17 30 27 21 25 41 43 44 43 41 49 48 48 48 48 48 49 51 53 53 53 53 53 53 54 55 56 55 57 57 60 58 60 61 60 61 61 62 62 61 61 61 61 61 61 62 62 65 67 67
26 28 26 24 26 27 22 21 29 18 20 20 30 30 20 17 19 22 32 42 43 43 43 46 46 47 47 48 49 49 52 53 53 53 53 53 53 54 56 56 56 56 56 59 57 58 60 61 63 62 61 61 60 60 62 60 60 61 61 62 64 66 66
28 26 24 25 23 27 28 24 21 28 26 31 27 30 33 22 19 19 25 37 40 45 44 46 46 47 47 47 45 47 51 52 53 53 53 53 54 54 53 54 55 55 55 56 56 58 59 60 61 61 61 61 60 60 60 60 61 60 60 61 64 64 65
23 23 29 25 23 25 26 25 26 24 31 28 27 33 26 23 23 18 25 32 34 41 47 46 46 47 47 44 44 47 51 52 52 52 53 53 54 54 54 55 55 54 53 55 58 59 61 62 64 62 62 61 60 61 60 60 59 59 59 61 63 63 64
26 23 26 25 24 24 24 24 25 23 26 25 20 21 29 32 26 22 21 22 32 44 55 49 47 47 46 44 44 47 50 51 52 53 53 54 54 54 54 54 52 54 56 58 59 62 62 62 62 63 62 61 61 60 59 59 59 58 58 62 63 63 63
21 23 25 32 23 25 26 26 27 24 26 28 23 17 22 28 33 33 32 29 33 45 51 50 48 47 45 43 45 47 49 50 52 53 54 54 54 54 53 52 53 56 58 59 60 61 62 62 62 62 62 61 61 60 60 59 59 57 59 62 63 63 63
37 30 32 31 34 29 28 34 29 26 26 21 20 25 30 23 29 22 25 26 27 43 53 48 47 47 45 44 45 46 48 50 52 53 54 54 54 54 54 54 55 57 59 60 61 61 61 61 61 62 61 61 61 61 61 59 58 57 61 62 63 63 62
31 29 31 31 39 33 33 33 33 25 22 24 32 37 36 25 30 28 23 17 30 44 53 50 46 46 44 44 46 48 49 50 52 53 54 55 55 55 55 57 57 58 60 59 59 59 60 61 61 61 61 61 61 61 61 60 59 58 61 62 62 62 61
21 22 21 25 31 36 35 39 36 33 21 26 28 26 30 20 32 31 28 28 32 42 49 48 47 47 45 47 47 49 50 51 52 53 54 55 55 55 55 57 58 58 58 59 58 60 60 61 60 61 61 61 61 61 61 61 59 60 61 62 63 61 61
25 26 33 41 43 37 32 31 31 27 28 22 32 34 27 21 30 28 30 32 36 42 45 46 46 46 45 46 48 49 50 51 52 53 54 54 55 55 55 56 57 58 58 58 59 60 60 60 61 61 61 61 61 61 61 61 60 60 61 62 61 60 61
35 36 41 38 41 32 33 31 28 28 27 29 29 29 24 35 30 25 35 38 38 41 44 45 46 46 46 47 48 48 50 51 52 52 52 59 55 56 56 57 57 57 57 58 58 59 60 61 61 61 61 61 61 61 60 61 60 61 63 61 59 60 60
40 38 35 33 30 30 33 31 28 28 28 33 33 35 30 34 27 26 32 37 37 36 42 44 45 46 45 47 48 49 51 51 51 51 53 53 54 55 56 55 56 57 57 57 58 59 60 60 60 60 60 60 60 60 60 59 59 58 62 60 59 59 60
31 34 35 29 35 32 29 29 27 27 28 25 25 31 35 33 34 32 32 38 37 35 39 44 46 47 47 48 49 51 50 50 51 50 51 52 53 54 54 55 55 56 57 58 58 59 59 59 59 59 59 59 59 59 58 58 57 58 61 60 58 59 60
37 36 35 35 36 35 29 27 26 28 27 26 27 30 32 39 36 38 37 39 40 44 48 46 48 48 49 49 49 48 49 51 51 50 50 51 53 54 54 54 54 55 57 58 58 58 58 59 58 58 57 58 58 59 59 58 58 58 58 58 58 59 59
34 36 35 33 32 30 31 33 31 28 28 30 34 33 34 32 33 37 39 35 39 46 48 48 48 47 46 46 48 50 51 50 51 49 49 49 51 53 54 54 54 55 57 57 57 57 58 58 58 57 58 58 58 57 57 57 58 59 58 58 58 59 59
35 36 37 33 32 30 29 33 32 35 33 32 31 34 42 41 37 36 30 32 43 46 48 45 45 46 47 48 48 48 49 49 49 48 49 49 51 52 52 53 55 56 56 56 57 57 58 58 58 58 58 58 57 57 57 57 59 59 59 59 59 59 59
35 37 37 36 32 28 29 38 37 36 30 29 28 29 39 40 45 38 38 42 46 47 46 45 46 46 47 47 48 48 48 48 48 48 49 49 51 52 52 53 54 55 56 57 58 58 58 59 59 59 60 57 57 58 58 59 58 58 57 58 58 59 59
32 36 39 32 28 29 37 38 35 34 33 34 30 31 39 42 47 46 45 46 46 46 46 46 46 46 47 48 48 48 47 47 47 48 49 50 52 52 53 54 55 55 55 56 57 58 59 59 60 59 58 60 60 59 59 58 58 57 57 56 57 58 58
34 32 32 27 29 37 43 38 36 36 38 35 38 38 40 44 43 46 45 46 47 48 47 47 46 46 47 49 50 48 48 48 48 47 48 50 53 54 54 54 54 55 55 56 57 57 60 62 60 58 58 59 58 57 56 56 56 57 56 56 56 57 58
27 33 32 31 37 33 36 34 33 32 34 35 32 29 37 47 46 46 46 47 48 47 46 46 47 49 50 49 49 53 50 51 49 47 48 50 51 53 53 53 54 56 56 56 57 60 59 58 59 59 58 59 58 57 55 56 56 55 54 55 56 56 59
34 29 27 29 26 26 33 43 39 42 40 43 41 39 37 46 44 46 45 45 46 46 46 46 47 49 45 45 47 51 52 52 52 52 52 50 52 54 53 55 55 57 57 57 58 59 57 58 59 59 60 59 58 57 57 56 56 55 55 55 55 58 57
30 29 24 26 25 29 34 32 31 38 38 41 46 38 35 41 46 46 45 45 46 45 45 46 47 43 40 41 46 49 52 53 52 53 52 52 53 53 53 54 55 57 57 57 59 61 58 58 58 60 59 58 56 56 58 57 57 56 55 56 57 57 56
33 31 28 26 31 29 37 42 42 36 38 38 35 28 32 41 46 46 46 45 46 46 46 47 44 42 40 42 44 49 51 53 55 54 51 52 52 53 54 54 56 56 58 61 58 57 58 58 59 60 60 59 59 58 58 58 57 56 56 57 57 57 57
35 34 30 29 32 39 43 43 37 40 39 35 30 28 33 44 46 48 46 46 47 48 49 46 43 45 44 46 48 51 51 51 52 53 50 51 51 52 53 54 62 57 56 55 54 55 56 58 60 59 58 57 59 62 62 59 59 59 58 58 58 58 58
31 31 28 29 33 36 38 42 42 43 36 31 31 38 45 47 47 47 45 45 50 49 47 46 46 48 51 51 48 48 49 49 50 50 49 52 53 53 58 61 58 55 56 57 57 58 58 59 59 58 58 57 58 58 59 58 58 58 59 59 59 57 57
32 33 29 28 25 35 42 40 42 46 38 37 41 47 50 49 45 47 47 45 47 49 47 50 50 49 45 45 44 47 49 49 49 49 49 49 52 55 57 57 61 55 55 56 56 56 58 59 59 58 57 57 58 59 58 58 59 60 60 60 59 57 57
29 30 27 28 33 37 39 41 37 42 45 42 48 46 42 48 47 45 46 48 49 48 49 48 49 50 50 49 49 48 48 49 49 50 49 50 52 52 52 52 56 59 54 54 54 53 55 57 57 58 59 58 59 60 58 58 58 59 59 60 59 58 59
32 33 36 39 43 41 41 46 44 44 45 46 48 43 42 42 42 46 44 47 51 51 49 49 48 47 49 46 47 47 46 47 48 48 49 49 49 48 48 51 57 56 53 54 55 54 55 56 57 58 59 58 60 60 59 59 60 59 60 59 59 58 57
47 45 41 40 45 45 42 43 48 43 45 48 46 43 43 46 47 47 43 47 48 49 48 47 50 47 48 48 49 50 50 48 50 51 49 48 48 48 49 53 58 54 55 55 55 55 56 57 57 59 59 58 57 58 58 58 58 58 59 59 58 57 56
34 30 41 40 42 43 41 37 39 41 42 47 48 47 48 46 49 50 51 47 48 48 50 46 46 48 50 50 50 52 51 49 49 49 49 49 50 50 51 54 58 54 55 55 55 55 55 56 59 59 58 58 58 58 59 59 57 58 59 59 59 57 54
31 35 40 44 41 42 44 43 42 42 43 44 47 49 48 48 49 51 50 47 46 46 44 45 44 44 45 46 45 47 51 49 49 49 49 51 54 53 53 55 57 54 54 53 54 55 56 56 58 59 58 58 58 57 57 56 55 56 60 59 56 54 52
40 38 38 40 38 41 43 45 46 46 45 45 46 46 45 45 44 45 46 47 46 46 45 46 47 47 49 53 51 52 52 53 54 54 54 55 56 57 57 57 57 54 54 54 55 56 55 56 57 57 57 58 57 55 54 54 54 56 57 60 56 52 53
32 31 32 37 32 37 40 44 45 46 46 44 45 46 45 46 46 47 46 48 50 50 50 47 49 51 51 52 51 49 51 51 51 55 56 57 57 57 57 57 56 55 57 55 56 56 55 55 56 56 56 56 55 56 54 55 56 52 57 56 56 53 53
28 37 42 45 41 40 43 43 46 48 47 44 43 43 44 47 48 48 47 47 47 49 50 50 49 49 49 49 52 52 52 51 52 55 56 57 57 56 57 56 56 56 56 58 57 56 55 56 57 58 58 57 57 58 57 56 56 54 57 56 55 52 53
36 38 43 45 43 41 42 46 47 46 49 45 43 44 45 45 49 50 49 46 45 50 50 51 50 49 49 49 51 51 52 52 53 53 54 56 56 56 57 55 55 55 56 56 56 56 55 56 56 56 58 58 57 57 57 56 57 55 55 56 55 54 53
39 41 45 46 43 43 44 44 45 47 52 44 42 42 46 48 50 53 50 52 51 50 51 52 53 52 51 51 51 50 52 54 54 54 55 57 55 55 55 55 54 55 55 55 55 55 55 55 55 56 56 57 58 58 57 57 56 54 55 56 55 54 54